Location: Poughquag
(41.6090°N, 73.6820°W)
Time: 12:39:13
(UTC-04:00)

Transit 4A - Pass Details

Date: 05 June 2020
Orbit: 866 x 978 km, 66.8° (Epoch: 06 July)

Event Time Altitude Azimuth Distance (km) Brightness Sun altitude
Rises 09:32:06 0° 333° (NNW) 3,569 10.7 44.1°
Reaches altitude 10° 09:34:41 10° 338° (NNW) 2,640 10.2 44.6°
Maximum altitude 09:40:42 52° 55° (NE) 1,164 9.7 45.7°
Drops below altitude 10° 09:46:50 10° 131° (SE) 2,695 11.1 46.8°
Sets 09:49:28 0° 136° (SE) 3,649 11.5 47.3°
